Vorticity
7 7 4 6 8 8 9 5 7 10 4 9 19 21 10 7 20 15 2 0 12 20 16 29 26 1 1 3 3 2 -2 3 1 11 21 9 7 6 6 16 18 18 11 3 6 12 12 9 9 6 3 5 5 7 6 5 5 2 2 3 6 9 9 11 10 7 4 11 15 -7 -17 -5 3 6 4 2 3 3 4 4 3 3 5 7 9 11
5 5 7 9 11 8 10 9 6 7 5 -4 -2 21 27 11 10 13 10 2 12 33 26 27 24 -1 2 8 5 8 7 9 7 15 29 20 11 4 -6 -7 -2 6 9 6 2 4 7 5 7 7 5 6 6 6 6 6 5 1 2 4 6 8 7 8 9 9 9 14 16 -1 -15 -6 6 8 6 6 4 2 4 4 6 6 5 7 7 9
1 6 11 9 10 7 7 9 6 8 10 -8 -19 9 29 17 4 6 13 -4 -3 28 22 14 13 -6 3 8 3 11 6 3 0 -3 13 21 13 3 -2 2 3 7 12 13 9 5 5 5 6 7 5 5 5 5 7 6 5 3 3 6 7 7 7 9 10 10 10 11 10 1 -4 3 8 6 6 7 5 4 5 3 5 6 5 4 4 5
-0 8 13 8 8 7 7 6 6 8 8 3 -6 -2 13 18 8 5 12 0 13 47 31 21 21 -6 0 9 7 17 9 6 2 -16 -6 16 18 9 5 9 9 12 14 11 10 7 5 6 6 6 4 4 5 4 6 5 5 5 4 5 5 6 8 10 9 9 10 8 5 4 6 9 6 4 5 5 7 8 6 5 5 5 4 3 2 3
3 9 10 10 8 7 9 6 8 7 2 11 1 -19 -2 27 20 5 10 5 13 29 13 21 27 -3 3 10 1 11 8 6 12 6 7 12 15 10 2 -1 -1 8 13 7 7 7 5 5 5 7 6 4 5 5 5 5 4 4 4 5 5 7 9 10 9 7 8 8 7 8 8 7 6 6 7 6 6 6 5 6 6 5 6 5 4 4
5 7 5 9 10 8 10 6 7 8 3 11 2 -19 -12 16 20 3 4 2 -7 1 3 11 10 -10 -2 4 -5 4 5 2 10 11 10 8 11 10 2 -0 -1 5 9 4 5 6 4 6 7 9 8 5 6 6 7 6 5 5 5 7 7 9 11 10 9 7 7 9 7 8 6 6 8 6 5 5 4 5 5 5 6 6 6 6 7 5
6 8 6 7 9 10 11 8 7 6 7 7 6 5 -15 -13 15 9 2 4 -9 3 12 1 4 3 2 6 4 8 9 8 6 5 9 8 4 -1 -2 0 0 4 4 -1 1 2 1 4 7 8 7 6 6 5 7 7 7 7 6 9 9 10 11 9 9 8 8 9 7 7 7 6 7 5 4 6 5 5 6 6 7 7 6 7 7 5
7 8 7 6 7 9 7 7 7 6 8 4 6 19 -2 -11 15 9 4 11 0 14 14 -10 5 16 1 0 2 4 9 7 6 11 15 13 4 -3 -0 5 4 4 2 1 2 2 3 6 7 7 6 6 6 5 7 8 8 8 7 9 9 7 8 7 8 8 7 7 7 7 6 5 5 5 3 5 6 6 6 6 6 7 7 7 6 6
9 6 9 9 5 7 10 7 6 9 8 6 8 15 13 10 6 -6 8 19 10 24 24 2 10 17 6 5 1 1 8 6 9 11 4 3 7 8 10 11 8 6 5 6 7 6 7 8 6 7 6 5 6 6 8 8 7 7 6 6 7 7 8 9 8 8 6 6 7 6 6 4 4 4 3 4 5 5 6 6 7 8 8 8 6 6
12 10 9 17 13 -1 5 10 6 10 6 3 9 16 31 30 -0 -13 7 14 8 17 18 5 6 9 13 16 7 5 10 7 5 1 -4 -3 3 12 16 10 7 9 9 8 8 7 8 8 6 7 7 5 7 8 7 7 6 5 6 6 7 7 8 9 8 7 7 6 7 5 5 4 3 4 3 3 4 4 6 6 7 8 8 9 8 8
20 32 8 11 36 23 10 13 6 7 11 8 2 8 37 37 -3 -14 6 11 4 4 8 9 8 7 8 9 5 4 6 6 7 9 12 10 3 13 21 11 5 8 10 10 8 9 9 8 7 5 6 7 7 8 7 6 6 5 6 6 6 7 8 10 8 7 8 7 7 5 4 4 4 4 4 4 5 5 6 7 7 9 10 11 10 8
9 43 20 -12 9 32 28 18 8 5 12 19 1 -12 22 45 10 -20 -8 13 7 -7 -1 7 10 17 15 6 3 5 8 7 10 12 15 13 4 6 15 13 8 6 7 9 8 10 10 7 7 5 6 7 5 6 6 6 7 5 7 5 4 7 7 9 9 8 8 7 6 6 4 5 4 4 5 4 6 6 7 9 8 10 10 10 10 7
-8 19 43 10 -17 10 26 15 18 17 5 15 14 -16 -4 36 29 -14 -25 4 13 2 10 10 5 15 18 9 2 5 13 11 8 6 7 16 8 -3 3 11 12 8 6 10 9 9 9 6 8 6 4 6 4 5 5 5 7 5 6 6 4 6 6 7 8 7 7 6 6 6 5 5 4 4 6 5 7 7 7 8 7 8 9 6 6 7
3 -6 26 31 4 16 26 3 14 31 9 6 17 -3 -10 20 40 14 -21 -13 8 8 13 15 10 11 10 9 2 -3 4 4 6 11 14 23 19 8 8 10 14 13 7 10 9 7 8 7 7 5 4 5 3 4 5 5 7 6 6 6 4 5 5 6 7 6 7 6 6 7 5 5 5 5 6 6 7 7 6 7 6 6 7 7 7 7
13 -1 1 6 -6 5 18 -2 2 31 26 15 15 0 -9 3 30 38 2 -18 3 9 3 6 9 7 4 7 6 0 4 4 3 9 11 13 14 13 13 10 13 14 8 9 8 6 8 7 6 4 3 4 3 4 5 5 7 7 7 6 4 5 5 5 6 6 7 6 6 7 6 6 6 6 7 7 7 6 6 7 8 10 12 12 13 11
9 12 8 7 -1 0 11 0 -9 9 28 34 20 -5 -10 -9 1 33 24 -10 -5 8 13 16 9 5 3 2 9 9 6 6 4 7 7 5 5 5 7 9 11 12 10 8 7 5 7 5 5 4 1 2 3 3 4 6 8 8 8 7 5 5 5 5 6 6 6 7 7 7 7 6 5 5 6 7 7 7 8 8 10 15 16 14 13 14
-3 1 8 20 24 23 22 13 -6 -11 15 40 20 -10 6 17 -3 10 26 11 2 3 14 21 8 7 8 -3 3 13 8 5 5 8 8 5 6 8 9 11 12 14 12 8 5 3 4 5 4 1 0 2 3 3 5 6 7 9 9 8 6 5 5 6 7 7 7 8 8 7 6 5 5 6 7 7 8 8 9 11 13 14 13 11 9 10
1 1 9 14 15 24 34 35 14 -13 4 35 21 -9 5 25 8 -3 6 18 21 2 -1 16 9 3 9 -1 -1 9 11 8 2 3 8 9 10 11 13 15 14 14 11 5 4 2 3 5 2 1 1 2 3 4 4 5 7 10 10 8 7 6 6 6 6 8 8 7 7 6 6 5 6 6 7 7 7 8 9 9 11 11 9 8 9 10
13 3 7 11 4 17 43 52 20 -14 1 24 22 13 4 5 14 10 -4 3 26 15 -8 5 18 11 6 3 4 5 6 10 6 2 4 6 10 10 12 15 12 9 8 4 3 4 4 4 2 2 2 1 4 4 3 4 6 10 10 8 7 7 6 6 7 8 7 6 7 6 6 6 6 6 6 7 6 7 9 9 10 11 10 10 12 13
16 -3 -4 20 18 6 22 40 8 -22 -2 6 4 25 20 0 8 18 -0 -12 14 32 7 -9 6 16 10 8 12 6 0 6 13 14 10 7 13 14 12 13 9 6 7 5 6 5 4 3 2 2 1 2 5 3 2 4 6 9 10 8 7 6 7 8 7 7 6 6 7 6 6 5 6 6 4 5 7 6 9 11 12 14 13 14 13 12
21 -0 -17 12 32 2 -9 21 16 -11 -5 -11 -27 -6 16 15 12 13 8 -5 -3 21 27 8 -4 -0 3 6 14 12 6 4 2 4 9 9 13 15 14 14 8 5 5 4 5 4 2 2 1 1 1 3 5 3 1 3 6 9 10 10 9 7 7 8 7 7 6 7 7 5 6 6 5 6 4 4 6 7 10 11 12 14 12 12 13 11
18 9 -15 -15 10 3 -12 19 37 15 12 17 -4 -17 4 23 13 0 8 16 10 8 22 28 14 6 5 2 6 11 14 18 7 -3 0 4 9 14 16 18 11 4 4 3 2 2 1 2 0 1 3 3 4 4 1 3 6 9 10 10 10 8 8 8 7 7 7 6 7 5 5 6 5 5 5 5 7 7 9 10 10 11 10 10 11 12
11 19 10 -18 -13 7 12 25 30 12 8 27 24 7 15 22 7 -1 1 4 8 3 6 18 15 17 21 13 12 8 5 20 28 20 10 3 6 12 14 15 9 4 5 4 3 2 1 1 1 2 3 3 5 3 0 4 9 11 11 9 10 10 9 9 7 7 7 6 6 5 4 5 5 4 5 6 7 7 7 8 9 8 7 8 9 10
4 13 23 5 -5 12 26 24 24 24 7 1 16 20 19 13 3 7 7 -3 1 4 4 11 8 7 14 15 20 16 8 18 31 31 21 9 5 8 11 13 8 5 7 5 4 3 1 3 3 2 3 4 5 3 2 7 10 12 12 9 10 10 9 9 8 7 7 6 5 4 4 4 4 4 6 6 7 7 8 8 7 6 5 6 7 7
3 3 15 14 2 4 19 11 13 38 12 -20 7 18 2 6 12 10 8 2 3 3 1 9 12 9 11 10 12 14 12 14 17 21 26 27 19 8 8 14 10 7 8 5 5 4 3 5 3 3 5 4 3 3 5 10 11 12 12 9 9 10 9 9 7 6 7 5 4 4 4 5 4 4 6 7 7 8 9 8 5 5 6 6 7 6
6 7 9 9 -1 -3 17 8 2 37 21 -17 8 14 -7 13 25 8 5 7 8 9 2 3 7 6 10 9 5 10 13 8 7 9 13 26 30 12 5 11 10 8 8 6 6 5 5 6 4 4 5 2 4 7 9 11 12 11 11 9 10 9 8 8 7 6 6 4 4 4 4 4 4 4 5 6 7 8 8 5 2 3 7 7 8 7
3 7 6 7 -0 -5 16 13 -1 26 24 -1 14 14 3 28 25 -2 1 8 11 16 7 5 10 4 3 8 4 10 19 17 17 14 3 9 23 16 8 10 9 8 8 6 7 6 5 5 3 3 4 4 8 10 10 11 11 11 10 10 10 9 8 8 7 6 5 5 5 5 5 5 3 4 4 4 5 5 4 2 0 3 7 8 8 6
8 11 7 5 3 -1 8 9 3 15 14 6 14 7 6 27 16 -3 8 7 3 10 6 7 18 8 -1 7 7 6 15 22 28 27 15 9 14 14 11 9 7 7 7 5 5 4 3 4 4 5 8 10 11 10 10 11 10 10 10 10 9 8 8 8 7 6 6 5 6 5 5 5 4 4 5 4 4 3 2 3 3 4 6 7 7 5
7 12 12 5 4 2 0 1 3 4 5 15 21 6 6 19 6 -0 16 11 -1 7 7 6 15 13 4 7 9 1 0 8 17 22 20 16 16 16 14 11 9 6 5 5 5 4 6 7 9 10 11 11 10 9 9 9 9 9 10 10 9 9 9 9 7 7 7 5 5 6 5 4 5 5 5 6 5 4 4 5 4 5 6 6 6 4
1 7 12 6 -0 -0 2 5 4 -5 -5 16 25 7 0 13 10 0 5 4 -1 3 5 1 7 15 11 8 10 6 4 8 8 7 10 12 13 14 13 12 12 10 8 8 8 9 11 11 10 11 10 9 9 8 8 7 8 9 9 9 9 10 10 8 7 7 7 6 5 5 5 5 5 5 5 5 5 5 5 6 5 6 5 5 6 5
3 1 4 4 -1 -2 -1 1 6 8 2 7 17 8 -1 11 20 10 2 5 6 5 3 -3 -0 11 15 14 16 16 18 22 19 14 14 12 10 10 9 10 11 10 10 10 11 11 11 10 10 10 10 8 7 7 7 6 7 7 8 9 8 9 10 7 7 8 6 5 5 5 7 7 5 5 5 5 5 5 5 6 6 7 6 6 6 5
13 8 6 6 4 5 1 -5 1 13 8 2 9 9 2 9 18 12 6 8 8 10 11 2 -9 -5 8 18 19 13 9 9 11 13 14 12 11 10 10 11 11 11 12 12 12 13 11 10 10 9 9 7 6 6 6 6 7 6 7 8 7 9 10 8 8 8 6 6 7 6 6 6 5 5 4 4 5 5 5 6 6 6 7 6 5 5
14 8 9 12 8 8 10 5 2 7 7 6 12 10 1 4 11 11 11 13 9 6 13 15 3 3 21 30 19 10 8 7 8 9 8 9 11 12 13 14 13 14 14 13 12 12 11 10 9 7 6 6 5 6 6 6 6 6 6 7 7 8 10 10 11 10 9 9 8 7 7 6 5 5 4 5 6 5 5 5 5 5 5 4 3 2
12 0 1 10 12 9 11 13 10 10 9 6 7 8 1 -3 2 9 16 25 21 5 5 19 15 10 25 29 13 5 8 8 8 9 10 11 12 11 12 12 13 13 12 12 11 11 10 9 8 6 6 6 6 5 4 4 5 6 6 7 7 8 8 10 11 12 11 11 10 9 8 6 6 6 7 7 8 8 9 8 8 7 6 6 6 4
17 9 3 8 14 10 5 7 12 13 13 13 13 13 8 1 3 15 22 28 31 20 12 14 4 -8 -1 6 5 6 7 6 9 10 10 11 10 10 10 10 11 11 10 10 9 8 8 7 6 5 5 4 4 3 4 5 5 6 6 7 7 8 8 9 9 10 10 11 12 12 11 10 9 8 8 8 8 8 9 9 9 9 8 8 9 7
13 16 11 7 18 31 23 12 13 11 9 17 20 14 12 9 4 11 17 18 23 22 12 5 -0 -3 1 4 6 8 6 7 9 8 8 10 9 8 9 9 10 8 7 8 7 5 6 5 4 5 5 5 6 6 7 7 7 7 7 7 8 8 9 9 10 9 9 8 10 11 12 12 10 9 7 7 7 6 6 5 4 4 5 6 7 7
10 18 15 -5 -5 20 23 8 8 12 9 16 20 12 11 12 3 1 6 7 10 12 8 5 3 2 3 4 4 6 7 8 9 9 10 10 8 8 9 9 9 8 6 6 5 6 7 7 8 8 8 9 9 9 8 7 7 7 7 8 9 9 9 9 9 9 9 9 8 8 9 10 10 9 8 7 7 7 5 5 4 3 4 5 6 7
10 14 16 -2 -12 3 12 3 6 13 10 12 18 13 8 10 10 7 5 3 3 4 3 4 4 3 4 5 4 6 8 9 9 9 7 6 5 7 6 5 5 5 5 5 6 8 9 10 11 10 9 8 6 4 4 5 7 9 9 9 10 10 11 11 9 9 9 9 9 9 10 11 11 11 11 10 9 8 7 6 5 4 5 5 7 9
10 8 7 4 2 8 13 9 11 15 10 10 18 17 9 8 9 7 4 2 1 2 2 2 2 2 3 2 3 4 6 7 6 5 4 3 3 5 9 12 10 6 3 2 3 5 4 4 5 5 5 5 3 3 5 6 9 9 8 10 13 14 17 17 15 12 9 8 9 9 9 10 10 11 12 12 12 12 12 11 10 9 9 8 9 10
14 10 7 7 8 9 11 11 14 16 11 11 19 18 10 6 5 4 4 4 2 3 4 4 4 5 5 6 7 5 3 2 2 4 6 5 3 3 8 14 15 12 9 6 2 1 2 3 5 7 9 11 11 11 10 9 10 10 10 12 12 11 13 15 16 16 13 9 8 6 6 5 5 5 5 6 7 7 8 9 10 11 10 9 8 7
16 10 7 10 14 14 10 7 10 14 14 15 18 16 10 5 2 1 3 4 5 5 4 4 7 11 12 12 10 5 1 1 4 7 10 9 9 8 6 6 7 8 8 6 5 5 7 9 12 13 14 13 11 10 10 10 10 11 10 9 6 5 7 8 11 13 13 13 11 10 9 8 7 7 7 6 6 5 5 5 4 5 4 4 3 2
16 13 5 3 10 16 13 9 7 8 11 13 13 14 15 11 6 6 7 8 10 11 10 9 8 6 5 5 4 3 4 5 7 8 8 8 9 8 7 5 5 6 7 8 9 9 9 9 9 9 8 7 7 9 10 11 11 11 10 9 9 10 10 10 11 11 11 13 13 12 13 13 13 13 12 13 13 12 12 11 9 9 7 6 6 4
12 11 11 10 10 6 4 8 8 7 10 11 7 5 8 9 9 10 12 13 14 12 10 9 7 6 6 5 5 6 7 7 8 7 7 8 9 7 7 7 8 9 10 9 9 9 10 10 10 10 9 9 11 12 12 12 12 12 12 12 11 12 11 10 11 11 11 11 11 11 12 12 12 13 12 13 14 13 14 14 14 14 14 12 12 11
23 11 13 28 29 13 6 12 15 15 16 18 16 12 8 8 8 7 7 9 10 8 7 7 8 9 9 8 8 9 9 9 10 10 11 11 11 10 10 9 9 8 7 6 8 10 11 12 12 12 12 12 11 11 11 12 12 11 12 12 11 11 11 11 11 11 11 11 10 10 11 10 11 12 12 12 13 13 13 13 13 13 14 14 14 13
22 5 -3 11 22 19 17 19 21 19 14 12 17 18 15 12 9 7 7 8 7 8 8 8 9 10 10 11 12 12 13 12 12 11 11 10 9 8 8 8 8 9 9 10 11 11 11 12 12 12 12 12 12 12 13 13 12 12 11 11 11 11 11 10 11 11 11 11 10 10 10 10 10 10 9 10 11 12 12 13 13 12 12 12 13 12
10 4 -5 -2 4 5 5 4 5 9 9 8 11 13 11 11 10 10 11 11 10 11 10 10 12 12 11 11 10 9 9 8 7 8 8 8 9 10 11 12 13 14 14 14 14 14 14 15 15 15 15 14 13 13 12 11 12 12 12 13 13 15 15 15 16 16 16 17 17 17 17 17 17 16 15 14 13 13 13 13 14 14 13 13 13 12
4 4 3 3 3 4 5 4 3 5 6 7 9 10 10 11 10 11 11 11 11 11 10 9 9 7 7 7 6 7 8 9 10 12 13 13 15 14 14 14 14 14 15 15 15 15 15 14 13 12 11 11 12 13 14 16 18 20 21 23 24 25 26 27 28 29 30 30 31 31 31 31 31 32 32 30 28 26 23 21 20 19 17 16 15 14
7 7 7 6 4 4 5 6 6 6 6 4 5 7 8 8 7 7 7 7 7 7 7 7 7 7 8 10 10 12 13 13 14 15 14 14 14 13 13 14 13 13 14 13 12 12 10 10 10 11 13 17 20 23 25 26 27 28 28 30 30 31 32 34 35 35 35 35 36 37 37 36 35 35 37 39 39 38 36 33 31 29 26 23 21 19
10 10 9 8 8 8 7 6 6 6 7 7 7 7 8 9 8 8 8 8 8 9 9 10 11 12 13 14 14 14 13 13 13 13 13 13 13 13 14 13 12 12 11 10 10 10 12 15 18 22 25 27 26 26 26 25 25 25 26 27 28 29 30 31 32 33 33 33 33 32 32 32 31 29 27 28 31 34 36 36 34 34 34 31 29 27
9 11 11 9 9 9 9 10 9 7 8 10 10 10 10 10 11 12 12 13 13 13 13 13 13 14 13 13 13 12 12 13 13 13 13 13 12 12 12 11 10 11 11 12 15 19 22 26 26 24 23 20 18 18 18 18 19 19 19 20 20 20 21 21 23 24 26 28 29 30 30 31 30 29 26 23 21 21 25 28 31 32 33 33 32 31
8 9 11 12 13 12 10 10 10 10 10 10 11 12 11 11 11 11 12 13 13 13 13 13 13 13 13 12 12 12 13 13 13 12 11 10 10 11 11 11 12 14 16 20 24 26 24 21 17 14 13 12 12 13 12 12 12 11 11 11 10 10 11 10 10 11 13 15 18 21 25 28 31 32 32 30 26 23 20 20 23 26 29 32 32 30
Height
5733 5736 5739 5742 5745 5748 5751 5754 5758 5762 5765 5768 5770 5772 5775 5779 5782 5785 5785 5778 5779 5786 5788 5793 5796 5793 5794 5795 5796 5798 5801 5804 5806 5805 5805 5807 5807 5805 5807 5810 5812 5812 5815 5818 5820 5822 5823 5823 5824 5825 5825 5825 5825 5826 5827 5827 5828 5828 5828 5828 5828 5828 5829 5829 5828 5828 5828 5828 5827 5826 5825 5824 5823 5822 5821 5820 5819 5818 5819 5819 5818 5817 5817 5818 5817 5817
5729 5732 5736 5740 5743 5746 5749 5753 5756 5760 5762 5765 5769 5772 5774 5777 5780 5785 5786 5779 5777 5784 5787 5790 5794 5792 5791 5793 5794 5796 5799 5802 5804 5803 5802 5801 5802 5803 5805 5809 5812 5813 5815 5818 5819 5820 5821 5821 5822 5823 5823 5823 5824 5824 5825 5826 5826 5826 5826 5827 5827 5827 5827 5827 5827 5826 5826 5826 5826 5825 5824 5823 5822 5821 5820 5819 5817 5816 5816 5817 5817 5815 5815 5816 5815 5814
5725 5729 5733 5737 5740 5743 5746 5750 5753 5757 5760 5761 5766 5771 5773 5774 5778 5783 5786 5782 5777 5781 5786 5789 5791 5790 5788 5790 5792 5794 5797 5799 5799 5798 5798 5797 5799 5801 5802 5805 5809 5811 5813 5816 5817 5818 5819 5820 5820 5821 5822 5822 5822 5822 5823 5824 5824 5825 5825 5825 5825 5825 5825 5825 5824 5824 5824 5824 5823 5823 5822 5821 5821 5819 5818 5816 5815 5814 5813 5813 5814 5813 5813 5813 5812 5812
5722 5726 5730 5733 5737 5740 5743 5746 5750 5754 5757 5758 5762 5767 5771 5773 5775 5780 5785 5783 5778 5779 5784 5788 5789 5786 5785 5787 5788 5790 5793 5793 5793 5795 5796 5797 5799 5799 5800 5803 5806 5808 5811 5812 5814 5816 5817 5817 5818 5819 5820 5820 5820 5821 5821 5822 5822 5822 5823 5823 5823 5823 5823 5822 5822 5822 5822 5821 5821 5821 5820 5819 5818 5817 5816 5814 5812 5811 5810 5810 5810 5810 5810 5809 5809 5809
5719 5724 5728 5730 5734 5738 5741 5743 5747 5751 5753 5756 5759 5762 5768 5773 5774 5778 5782 5782 5779 5778 5781 5787 5787 5783 5781 5784 5783 5786 5789 5787 5790 5794 5795 5797 5798 5798 5800 5801 5803 5806 5808 5809 5811 5813 5814 5815 5816 5817 5818 5818 5818 5819 5819 5820 5820 5820 5821 5821 5821 5821 5821 5820 5820 5820 5820 5819 5819 5819 5818 5817 5816 5815 5814 5812 5810 5809 5808 5807 5806 5807 5807 5806 5806 5806
5716 5720 5724 5728 5731 5735 5738 5740 5743 5748 5751 5753 5755 5758 5765 5771 5774 5778 5778 5777 5777 5777 5779 5783 5784 5780 5779 5781 5780 5783 5784 5784 5788 5791 5792 5796 5797 5797 5798 5798 5800 5803 5804 5806 5808 5809 5811 5812 5813 5814 5815 5816 5816 5817 5817 5817 5818 5818 5819 5819 5819 5818 5818 5818 5818 5818 5818 5817 5817 5817 5816 5815 5814 5813 5812 5811 5809 5807 5806 5805 5804 5805 5805 5804 5804 5803
5713 5716 5720 5724 5728 5731 5734 5737 5739 5744 5749 5749 5752 5758 5761 5766 5772 5776 5774 5771 5773 5776 5778 5780 5780 5778 5776 5778 5778 5778 5780 5781 5786 5789 5790 5794 5795 5796 5797 5797 5799 5800 5801 5803 5805 5806 5808 5809 5810 5811 5812 5813 5814 5814 5815 5815 5815 5816 5816 5817 5816 5816 5816 5816 5816 5816 5816 5816 5815 5815 5814 5813 5812 5811 5810 5809 5807 5805 5804 5803 5803 5802 5802 5803 5802 5801
5709 5711 5716 5721 5724 5726 5730 5733 5735 5740 5745 5746 5751 5756 5758 5761 5767 5773 5772 5768 5769 5774 5776 5778 5779 5776 5774 5776 5776 5775 5776 5780 5784 5787 5788 5791 5793 5793 5795 5796 5797 5798 5799 5801 5802 5804 5805 5806 5808 5808 5810 5811 5811 5812 5812 5813 5813 5814 5814 5814 5814 5814 5813 5813 5813 5813 5813 5813 5813 5813 5812 5811 5810 5809 5808 5807 5806 5804 5803 5802 5800 5800 5800 5799 5799 5799
5705 5707 5713 5717 5719 5722 5725 5729 5733 5737 5741 5744 5748 5752 5756 5760 5763 5768 5770 5767 5767 5770 5772 5774 5775 5773 5772 5774 5773 5771 5774 5778 5781 5784 5786 5788 5790 5790 5792 5793 5795 5796 5796 5798 5800 5802 5803 5804 5805 5806 5807 5808 5809 5810 5810 5810 5811 5811 5812 5812 5812 5812 5812 5812 5811 5811 5811 5811 5810 5810 5809 5809 5808 5807 5806 5805 5804 5803 5801 5800 5798 5797 5797 5796 5795 5795
5701 5705 5712 5713 5715 5719 5722 5726 5732 5734 5737 5743 5747 5749 5754 5759 5760 5762 5766 5766 5765 5765 5767 5770 5771 5770 5771 5772 5768 5768 5771 5774 5778 5781 5783 5785 5787 5787 5789 5790 5792 5793 5794 5796 5797 5799 5800 5802 5803 5804 5805 5805 5806 5807 5807 5808 5808 5809 5809 5810 5810 5810 5810 5810 5809 5809 5808 5808 5807 5807 5807 5806 5806 5805 5804 5802 5801 5800 5799 5798 5796 5794 5793 5792 5791 5791
5700 5703 5709 5709 5712 5717 5720 5724 5729 5731 5734 5740 5745 5748 5751 5754 5755 5757 5761 5764 5763 5760 5761 5766 5767 5767 5770 5768 5765 5766 5767 5769 5776 5779 5780 5783 5784 5785 5786 5787 5788 5790 5791 5793 5795 5796 5798 5799 5800 5801 5802 5803 5804 5804 5805 5805 5806 5806 5806 5806 5807 5807 5807 5807 5807 5807 5806 5805 5805 5805 5804 5804 5803 5802 5801 5800 5798 5797 5796 5795 5793 5792 5791 5790 5788 5788
5698 5699 5703 5705 5708 5714 5716 5719 5725 5728 5731 5737 5742 5745 5747 5749 5752 5753 5756 5759 5757 5755 5758 5762 5764 5765 5767 5766 5765 5764 5762 5765 5772 5776 5777 5779 5781 5782 5783 5784 5785 5787 5788 5790 5792 5794 5796 5797 5798 5799 5799 5800 5801 5802 5802 5803 5804 5804 5804 5804 5804 5804 5804 5804 5804 5804 5804 5803 5803 5802 5802 5801 5800 5800 5799 5797 5796 5794 5793 5791 5790 5788 5788 5787 5786 5785
5694 5696 5698 5702 5704 5707 5711 5716 5722 5724 5726 5732 5737 5739 5742 5745 5747 5749 5750 5753 5752 5752 5756 5760 5763 5762 5762 5763 5762 5758 5757 5761 5768 5773 5774 5776 5777 5779 5780 5781 5783 5784 5786 5788 5790 5792 5793 5794 5795 5796 5797 5798 5798 5799 5800 5801 5801 5801 5801 5801 5801 5801 5801 5801 5801 5801 5801 5800 5800 5799 5799 5798 5797 5797 5796 5795 5793 5791 5789 5788 5787 5785 5784 5783 5782 5782
5690 5693 5695 5699 5701 5702 5707 5713 5718 5718 5720 5727 5732 5734 5737 5740 5741 5743 5746 5749 5750 5751 5755 5760 5762 5759 5757 5759 5758 5754 5756 5761 5766 5771 5772 5772 5774 5776 5777 5779 5780 5782 5784 5786 5787 5789 5791 5792 5793 5793 5794 5795 5796 5797 5797 5798 5798 5799 5799 5799 5798 5799 5798 5798 5798 5798 5798 5797 5797 5796 5796 5795 5795 5794 5793 5791 5790 5788 5786 5785 5784 5783 5781 5780 5778 5777
5685 5689 5691 5694 5696 5697 5702 5709 5714 5716 5719 5724 5729 5731 5735 5736 5737 5739 5742 5746 5748 5751 5755 5759 5759 5755 5753 5754 5754 5754 5756 5759 5764 5768 5769 5769 5771 5772 5774 5776 5777 5779 5781 5783 5785 5787 5788 5789 5790 5791 5792 5793 5793 5794 5795 5795 5796 5796 5796 5796 5796 5796 5796 5795 5795 5795 5795 5794 5794 5793 5793 5792 5791 5791 5790 5788 5787 5785 5784 5782 5781 5779 5778 5777 5775 5774
5682 5687 5689 5691 5694 5696 5700 5706 5711 5715 5718 5722 5727 5729 5730 5732 5736 5738 5740 5744 5747 5749 5752 5753 5752 5750 5750 5750 5750 5752 5754 5756 5761 5765 5765 5766 5767 5769 5771 5773 5774 5776 5779 5781 5783 5784 5785 5786 5787 5789 5790 5790 5791 5792 5792 5792 5793 5792 5792 5793 5793 5793 5793 5792 5792 5792 5791 5791 5791 5790 5789 5789 5788 5787 5786 5785 5784 5782 5781 5779 5779 5777 5775 5774 5773 5772
5680 5686 5688 5689 5692 5695 5699 5704 5709 5713 5716 5719 5722 5725 5727 5730 5735 5739 5740 5742 5744 5745 5746 5747 5747 5747 5747 5746 5747 5749 5751 5753 5757 5760 5761 5763 5764 5766 5768 5770 5772 5774 5776 5779 5780 5781 5782 5784 5785 5786 5787 5788 5789 5789 5789 5789 5790 5789 5789 5790 5790 5790 5790 5789 5789 5789 5788 5788 5787 5787 5786 5785 5785 5784 5783 5782 5781 5779 5778 5776 5776 5774 5773 5772 5771 5770
5679 5685 5687 5686 5689 5693 5696 5701 5707 5710 5713 5716 5719 5724 5728 5730 5733 5736 5738 5738 5740 5741 5742 5743 5743 5744 5744 5743 5744 5746 5748 5750 5754 5757 5758 5760 5762 5764 5766 5767 5770 5772 5774 5776 5777 5778 5780 5781 5783 5784 5785 5785 5786 5786 5786 5787 5787 5786 5787 5787 5786 5787 5787 5786 5786 5786 5785 5785 5784 5783 5783 5782 5782 5781 5780 5779 5777 5776 5774 5773 5772 5771 5770 5769 5768 5767
5679 5684 5685 5684 5687 5692 5694 5698 5703 5706 5709 5713 5718 5723 5724 5725 5728 5731 5732 5734 5735 5737 5739 5739 5739 5742 5742 5741 5742 5746 5748 5750 5752 5754 5756 5757 5760 5762 5763 5765 5767 5769 5771 5773 5774 5776 5778 5779 5780 5781 5782 5782 5782 5782 5783 5783 5783 5783 5783 5783 5783 5784 5783 5783 5783 5782 5782 5781 5781 5780 5780 5779 5779 5778 5777 5775 5774 5773 5772 5770 5769 5768 5767 5766 5765 5764
5676 5681 5683 5683 5686 5690 5691 5693 5698 5702 5704 5710 5716 5719 5719 5721 5725 5727 5728 5730 5732 5734 5736 5736 5736 5738 5738 5739 5741 5744 5746 5748 5750 5752 5753 5755 5757 5759 5761 5762 5764 5766 5768 5770 5772 5774 5775 5776 5777 5778 5779 5779 5779 5780 5780 5780 5780 5780 5780 5780 5780 5780 5780 5780 5779 5779 5778 5778 5777 5777 5777 5776 5776 5775 5773 5772 5771 5770 5769 5768 5766 5765 5764 5763 5762 5761
5672 5677 5680 5681 5683 5686 5687 5689 5694 5698 5699 5703 5708 5712 5713 5716 5721 5725 5726 5728 5730 5731 5733 5733 5732 5733 5735 5737 5738 5740 5742 5745 5748 5749 5750 5752 5754 5756 5758 5759 5761 5764 5765 5767 5769 5771 5772 5773 5774 5775 5776 5776 5776 5776 5777 5777 5777 5777 5776 5776 5777 5777 5776 5776 5776 5776 5775 5775 5774 5774 5773 5773 5772 5771 5770 5769 5768 5767 5766 5765 5764 5762 5761 5760 5759 5758
5669 5673 5676 5678 5679 5681 5684 5687 5693 5697 5699 5700 5704 5708 5710 5713 5717 5721 5722 5724 5726 5728 5730 5731 5730 5730 5733 5736 5736 5736 5738 5742 5744 5746 5747 5749 5751 5753 5754 5757 5758 5760 5762 5764 5766 5768 5769 5770 5771 5772 5773 5773 5773 5773 5773 5773 5773 5773 5773 5773 5773 5773 5773 5773 5772 5772 5772 5771 5771 5771 5770 5769 5768 5767 5766 5765 5764 5763 5763 5762 5761 5760 5759 5758 5757 5756
5667 5670 5673 5675 5678 5681 5684 5686 5690 5695 5699 5701 5702 5706 5710 5712 5714 5716 5719 5722 5724 5726 5728 5728 5727 5727 5729 5732 5732 5732 5735 5738 5741 5743 5744 5746 5748 5749 5752 5754 5756 5757 5759 5761 5763 5765 5766 5767 5768 5769 5769 5769 5770 5770 5770 5770 5770 5770 5769 5769 5769 5769 5769 5769 5769 5769 5768 5768 5767 5767 5766 5766 5765 5763 5762 5761 5761 5760 5760 5759 5759 5758 5757 5756 5755 5755
5664 5666 5670 5674 5678 5681 5683 5686 5688 5691 5696 5700 5701 5703 5707 5710 5713 5714 5718 5721 5722 5724 5725 5724 5724 5724 5725 5727 5729 5730 5732 5736 5738 5739 5741 5742 5744 5746 5749 5751 5752 5754 5756 5758 5760 5761 5763 5764 5765 5765 5766 5766 5766 5766 5766 5766 5766 5766 5766 5765 5766 5765 5765 5765 5765 5765 5765 5764 5764 5763 5763 5762 5761 5760 5759 5758 5758 5757 5757 5756 5756 5755 5754 5753 5753 5752
5662 5665 5668 5671 5675 5677 5679 5682 5685 5686 5689 5695 5698 5700 5703 5708 5712 5714 5717 5719 5718 5720 5722 5721 5721 5722 5722 5724 5726 5728 5731 5732 5734 5735 5737 5738 5741 5743 5745 5747 5749 5751 5753 5755 5757 5758 5760 5761 5761 5762 5762 5762 5763 5763 5763 5763 5763 5762 5762 5762 5762 5762 5762 5761 5761 5761 5761 5760 5760 5759 5759 5758 5757 5757 5756 5755 5754 5754 5754 5753 5753 5752 5752 5751 5749 5748
5661 5664 5666 5669 5671 5673 5675 5677 5680 5682 5686 5690 5694 5698 5701 5705 5708 5711 5714 5715 5715 5717 5719 5718 5717 5719 5719 5721 5723 5725 5727 5729 5731 5733 5734 5735 5737 5740 5742 5744 5746 5748 5751 5752 5754 5755 5757 5757 5757 5758 5758 5758 5759 5759 5759 5759 5759 5758 5758 5758 5758 5758 5758 5758 5757 5757 5757 5756 5756 5755 5755 5755 5754 5754 5753 5752 5751 5751 5750 5750 5750 5749 5749 5748 5746 5745
5659 5662 5665 5668 5670 5672 5675 5677 5681 5683 5686 5688 5692 5695 5698 5701 5704 5709 5712 5712 5713 5715 5715 5713 5714 5715 5716 5718 5720 5722 5724 5725 5727 5729 5731 5733 5735 5737 5739 5741 5743 5745 5748 5750 5751 5752 5753 5753 5754 5754 5754 5755 5755 5754 5755 5755 5754 5754 5755 5755 5755 5754 5754 5753 5753 5753 5753 5753 5752 5752 5751 5751 5751 5750 5750 5749 5748 5748 5747 5746 5746 5746 5745 5744 5743 5742
5656 5660 5663 5665 5668 5671 5673 5677 5681 5684 5686 5688 5689 5692 5695 5698 5701 5706 5708 5708 5710 5711 5709 5710 5712 5712 5713 5715 5717 5719 5721 5722 5724 5726 5728 5730 5732 5734 5736 5738 5741 5743 5745 5746 5748 5748 5749 5750 5750 5750 5750 5751 5750 5750 5751 5751 5750 5751 5751 5751 5751 5750 5749 5750 5750 5750 5749 5749 5748 5748 5748 5747 5747 5747 5746 5745 5745 5744 5743 5743 5742 5741 5741 5740 5740 5738
5655 5658 5659 5662 5666 5669 5671 5673 5676 5680 5683 5685 5686 5689 5693 5697 5700 5703 5703 5703 5704 5706 5705 5707 5709 5709 5711 5713 5715 5717 5719 5721 5722 5724 5725 5728 5730 5732 5734 5736 5738 5740 5741 5743 5744 5745 5746 5746 5746 5746 5747 5747 5746 5747 5747 5746 5746 5747 5747 5747 5746 5745 5746 5747 5746 5746 5745 5745 5744 5744 5744 5743 5743 5743 5742 5741 5740 5740 5739 5739 5738 5737 5737 5736 5735 5735
5653 5655 5657 5660 5665 5667 5669 5671 5673 5675 5678 5681 5684 5688 5690 5692 5694 5696 5695 5696 5699 5700 5701 5704 5706 5707 5709 5710 5712 5715 5717 5719 5720 5722 5723 5725 5727 5729 5731 5733 5735 5736 5738 5739 5740 5741 5742 5742 5742 5743 5743 5743 5743 5743 5743 5742 5743 5743 5743 5743 5742 5741 5742 5743 5742 5741 5741 5741 5740 5740 5740 5739 5739 5738 5738 5737 5736 5735 5735 5734 5734 5733 5732 5731 5731 5730
5651 5653 5656 5660 5663 5666 5667 5669 5672 5674 5675 5677 5680 5682 5683 5685 5687 5689 5689 5691 5694 5696 5698 5701 5704 5705 5707 5709 5711 5713 5715 5716 5718 5719 5721 5723 5725 5727 5728 5730 5732 5733 5734 5736 5737 5738 5738 5738 5739 5739 5739 5739 5739 5739 5739 5739 5739 5739 5739 5739 5738 5737 5738 5738 5738 5737 5737 5736 5736 5736 5735 5735 5735 5734 5734 5733 5732 5731 5731 5730 5729 5729 5728 5727 5726 5725
5649 5651 5654 5658 5661 5663 5665 5667 5670 5672 5673 5675 5676 5676 5678 5682 5684 5685 5686 5688 5691 5694 5696 5699 5703 5704 5706 5707 5709 5711 5712 5714 5716 5718 5720 5721 5723 5724 5726 5727 5729 5730 5731 5733 5733 5734 5735 5735 5735 5735 5735 5735 5735 5735 5735 5735 5735 5735 5734 5734 5734 5733 5733 5734 5734 5734 5733 5732 5732 5732 5731 5731 5730 5730 5729 5729 5728 5727 5726 5726 5725 5724 5724 5723 5722 5721
5647 5650 5652 5656 5659 5661 5663 5665 5667 5669 5671 5674 5675 5676 5678 5681 5682 5683 5685 5687 5690 5693 5695 5698 5701 5703 5704 5705 5707 5709 5711 5712 5714 5716 5718 5719 5721 5722 5723 5725 5726 5727 5728 5729 5730 5731 5731 5732 5732 5732 5732 5732 5732 5732 5732 5731 5731 5731 5730 5730 5730 5729 5729 5729 5729 5729 5729 5728 5727 5727 5727 5726 5726 5725 5725 5724 5723 5723 5722 5721 5720 5720 5719 5718 5717 5717
5646 5649 5651 5654 5657 5659 5660 5662 5665 5667 5669 5671 5672 5674 5676 5678 5680 5682 5684 5686 5689 5691 5693 5696 5699 5701 5702 5703 5705 5707 5709 5711 5713 5714 5716 5717 5719 5720 5721 5722 5723 5724 5725 5726 5727 5728 5728 5728 5729 5729 5729 5729 5729 5729 5728 5728 5727 5727 5726 5726 5726 5725 5725 5725 5725 5725 5724 5723 5723 5722 5722 5721 5721 5721 5720 5719 5718 5718 5717 5716 5715 5715 5714 5713 5712 5712
5646 5648 5650 5653 5656 5657 5658 5660 5662 5664 5666 5668 5670 5671 5673 5676 5680 5682 5683 5684 5686 5689 5692 5695 5697 5699 5701 5702 5704 5706 5707 5709 5711 5712 5714 5715 5716 5717 5719 5720 5721 5722 5722 5723 5724 5724 5725 5725 5726 5726 5726 5725 5725 5725 5724 5724 5723 5723 5722 5722 5722 5721 5721 5720 5720 5720 5719 5719 5718 5717 5717 5716 5716 5715 5714 5714 5713 5712 5712 5711 5710 5709 5709 5708 5707 5706
5645 5647 5649 5652 5654 5654 5655 5658 5659 5661 5664 5666 5668 5669 5672 5676 5679 5680 5681 5683 5685 5687 5690 5692 5694 5696 5699 5700 5702 5704 5705 5707 5708 5710 5711 5713 5714 5715 5716 5717 5718 5719 5719 5720 5721 5721 5722 5722 5722 5722 5722 5722 5722 5721 5720 5720 5719 5719 5718 5718 5717 5717 5716 5716 5715 5715 5714 5713 5713 5712 5711 5711 5710 5709 5709 5708 5707 5706 5706 5705 5705 5704 5703 5702 5701 5700
5643 5645 5648 5650 5652 5652 5654 5656 5658 5660 5662 5665 5666 5669 5671 5674 5676 5678 5679 5681 5684 5686 5688 5690 5692 5694 5696 5698 5700 5702 5703 5705 5706 5707 5709 5710 5711 5712 5713 5714 5715 5715 5716 5717 5718 5718 5719 5719 5719 5719 5719 5718 5718 5717 5716 5716 5715 5714 5714 5713 5713 5712 5711 5710 5710 5709 5709 5708 5707 5707 5706 5705 5704 5704 5703 5702 5701 5701 5700 5699 5699 5698 5698 5697 5696 5695
5640 5643 5645 5648 5649 5650 5652 5654 5656 5658 5660 5663 5666 5668 5670 5672 5675 5677 5679 5680 5682 5685 5687 5689 5691 5693 5695 5696 5698 5700 5701 5703 5704 5706 5707 5708 5709 5710 5711 5711 5712 5713 5714 5714 5715 5715 5715 5715 5716 5715 5715 5714 5714 5713 5712 5712 5711 5710 5709 5708 5708 5707 5706 5705 5704 5704 5703 5702 5702 5701 5700 5699 5699 5698 5697 5696 5696 5695 5694 5693 5692 5692 5691 5691 5690 5689
5638 5641 5643 5646 5647 5649 5650 5652 5654 5656 5659 5662 5664 5666 5669 5672 5673 5675 5677 5679 5681 5683 5685 5687 5689 5691 5693 5694 5696 5698 5699 5701 5702 5704 5705 5705 5706 5707 5708 5708 5709 5710 5711 5711 5711 5712 5712 5712 5712 5711 5711 5710 5709 5709 5708 5707 5706 5706 5705 5704 5702 5701 5700 5699 5699 5698 5697 5696 5696 5695 5694 5693 5693 5692 5691 5690 5689 5688 5687 5686 5686 5685 5685 5684 5683 5683
5637 5640 5642 5644 5646 5647 5648 5650 5653 5655 5657 5660 5662 5664 5667 5669 5671 5672 5674 5677 5679 5681 5684 5686 5687 5689 5691 5692 5694 5695 5697 5699 5700 5701 5702 5703 5704 5704 5705 5706 5706 5707 5708 5708 5708 5708 5708 5707 5707 5706 5706 5705 5705 5704 5703 5702 5702 5701 5700 5699 5698 5696 5695 5694 5693 5692 5691 5690 5690 5689 5688 5687 5686 5685 5684 5683 5682 5682 5681 5680 5679 5678 5678 5677 5676 5676
5636 5639 5641 5643 5645 5646 5648 5650 5652 5654 5656 5658 5661 5663 5665 5667 5669 5670 5672 5675 5678 5680 5682 5684 5686 5687 5689 5690 5692 5693 5695 5696 5697 5698 5699 5700 5701 5702 5702 5703 5703 5704 5704 5704 5704 5704 5703 5703 5702 5702 5701 5701 5700 5700 5699 5698 5697 5696 5695 5694 5693 5692 5690 5689 5688 5687 5686 5685 5684 5683 5682 5681 5679 5678 5677 5676 5675 5675 5674 5673 5672 5671 5671 5670 5669 5668
5635 5637 5640 5642 5643 5645 5646 5649 5651 5653 5655 5657 5660 5662 5664 5665 5667 5669 5672 5675 5677 5678 5680 5682 5683 5685 5687 5688 5690 5691 5692 5693 5694 5695 5696 5697 5698 5699 5699 5700 5700 5700 5700 5700 5700 5699 5699 5699 5698 5697 5697 5697 5696 5695 5695 5694 5693 5692 5691 5690 5688 5687 5686 5684 5682 5681 5680 5679 5678 5676 5675 5674 5672 5671 5670 5669 5668 5667 5666 5665 5664 5664 5663 5662 5661 5661
5634 5636 5638 5640 5641 5643 5645 5647 5650 5652 5654 5656 5658 5660 5662 5664 5666 5669 5671 5674 5675 5676 5678 5680 5681 5683 5684 5685 5687 5688 5689 5690 5691 5692 5693 5694 5695 5695 5696 5696 5696 5696 5696 5696 5696 5695 5695 5695 5694 5694 5694 5693 5692 5691 5690 5689 5689 5688 5687 5685 5684 5682 5681 5679 5677 5675 5674 5673 5671 5670 5668 5667 5665 5664 5663 5661 5660 5659 5658 5657 5656 5655 5655 5654 5653 5653
5634 5636 5637 5638 5640 5642 5644 5646 5648 5651 5652 5654 5656 5658 5660 5663 5666 5668 5669 5671 5673 5674 5676 5677 5679 5680 5682 5683 5684 5685 5686 5687 5688 5689 5690 5691 5691 5692 5692 5692 5692 5692 5692 5692 5692 5692 5692 5691 5691 5690 5690 5689 5688 5687 5687 5686 5685 5683 5682 5680 5679 5677 5675 5673 5671 5670 5668 5666 5665 5663 5661 5660 5657 5656 5655 5653 5652 5651 5650 5649 5648 5647 5646 5646 5645 5645
5633 5635 5636 5638 5640 5642 5644 5646 5647 5649 5650 5652 5655 5657 5660 5662 5664 5665 5667 5669 5670 5672 5673 5675 5676 5678 5679 5680 5681 5682 5683 5684 5685 5686 5687 5687 5688 5688 5688 5689 5689 5689 5689 5689 5688 5688 5688 5688 5687 5687 5686 5685 5684 5684 5683 5682 5680 5679 5677 5676 5674 5672 5670 5668 5666 5664 5662 5660 5658 5656 5654 5652 5650 5648 5647 5646 5644 5642 5641 5640 5639 5638 5638 5638 5637 5637
5633 5634 5636 5637 5639 5641 5642 5644 5646 5648 5649 5652 5654 5656 5658 5659 5661 5663 5665 5666 5668 5670 5671 5672 5674 5675 5676 5677 5679 5680 5681 5681 5682 5683 5683 5684 5684 5685 5685 5685 5685 5685 5685 5685 5685 5685 5685 5684 5684 5683 5682 5682 5681 5680 5679 5678 5676 5674 5673 5671 5669 5667 5665 5663 5660 5658 5656 5653 5651 5649 5647 5645 5642 5640 5639 5638 5636 5634 5633 5632 5631 5630 5630 5629 5629 5629
5632 5633 5635 5636 5638 5640 5641 5644 5646 5647 5649 5651 5653 5654 5656 5658 5659 5661 5662 5664 5666 5667 5669 5670 5671 5673 5674 5675 5676 5677 5678 5679 5679 5680 5680 5681 5681 5681 5682 5682 5682 5682 5682 5682 5682 5682 5681 5681 5681 5680 5679 5678 5677 5676 5675 5673 5672 5670 5668 5666 5664 5662 5659 5657 5655 5652 5649 5647 5644 5642 5640 5638 5635 5633 5631 5630 5628 5626 5625 5624 5622 5621 5621 5621 5620 5620
5630 5632 5634 5635 5637 5639 5640 5642 5644 5646 5647 5649 5651 5653 5654 5656 5657 5659 5660 5661 5663 5665 5666 5668 5669 5670 5671 5672 5673 5674 5675 5676 5676 5677 5677 5678 5678 5678 5679 5679 5679 5679 5679 5679 5679 5679 5678 5678 5677 5676 5676 5675 5673 5672 5671 5670 5668 5666 5664 5662 5660 5657 5655 5652 5650 5647 5645 5642 5639 5637 5634 5632 5630 5628 5625 5623 5621 5619 5617 5616 5614 5613 5613 5613 5612 5612
5628 5630 5632 5633 5635 5637 5638 5640 5642 5644 5645 5647 5649 5651 5652 5653 5655 5656 5657 5659 5661 5662 5663 5665 5666 5667 5668 5669 5670 5671 5672 5673 5673 5674 5674 5675 5675 5676 5676 5676 5676 5676 5676 5676 5676 5676 5676 5675 5674 5674 5673 5672 5670 5669 5668 5667 5665 5663 5661 5659 5657 5655 5652 5650 5647 5644 5642 5639 5636 5633 5630 5627 5625 5624 5621 5619 5617 5614 5612 5610 5608 5606 5605 5605 5604 5604
5626 5628 5630 5631 5633 5634 5636 5638 5639 5641 5643 5645 5647 5648 5649 5651 5652 5654 5655 5656 5658 5659 5660 5662 5663 5664 5665 5666 5667 5668 5669 5670 5671 5671 5672 5672 5673 5673 5673 5674 5674 5674 5674 5674 5674 5674 5673 5672 5672 5671 5670 5669 5668 5667 5666 5664 5662 5661 5659 5657 5655 5653 5651 5648 5646 5643 5640 5637 5634 5631 5628 5625 5622 5620 5618 5616 5614 5611 5609 5607 5604 5602 5600 5599 5598 5597
5625 5627 5628 5629 5631 5632 5634 5635 5637 5639 5641 5643 5644 5646 5647 5648 5650 5651 5652 5654 5655 5657 5658 5659 5661 5662 5663 5663 5664 5666 5667 5667 5668 5669 5669 5670 5670 5671 5671 5671 5672 5672 5672 5672 5672 5672 5671 5671 5670 5669 5668 5668 5666 5665 5664 5663 5661 5659 5658 5656 5654 5652 5650 5648 5645 5643 5640 5637 5634 5631 5628 5624 5621 5618 5615 5612 5610 5608 5606 5604 5602 5599 5597 5595 5594 5592